STARLINK-30545

operational
NORAD ID: 58000 Int'l Des: 2023-153 Owner: SPXS Country: US Constellation: starlink
LEOCIRCULAR

About STARLINK-30545

Description loading...

Live Position

Loading 3D Globe...

Upcoming Passes

Altitude History

Altitude vs Time

uPlot chart will show altitude changes over time

Two-Line Element Set

1 58000U 23153K 25251.52392788 -.00000699 00000-0 -36719-4 0 9992
2 58000 43.0050 338.6092 0001300 263.7222 96.3473 15.02527180107478
Epoch: Sep 8, 2025 • Age: 14 hours

Current Status

Altitude 559.4 km
Velocity 7.58 km/s
Sub-Earth Point -3.82°S, 60.77°W
Launch Date Oct 5, 2023
Age 1.9 years
Type internet

Technical Details

Classification Payload
Mass 730.00 kg
Dry Mass 700.00 kg
Total Mass 730.00 kg
Length 0.30 m
Diameter 4.10 m
Span 29.00 m
Shape Box + pan
Manufacturer SPXS
Bus Type Starlink V2M
Phase Status In Orbit
Owner/State SPXS/US

Large Constellations

Loading constellations...